STARLINK-1670, 46370

Orbit data source: Space-Track

STARLINK-1670, 46370 is a payload satellite owned by SpaceX/Seattle (US) in LEO that was launched on Thu, 03 Sep 2020 UTC via an FALCON 9 launch vehicle from the Air Force Eastern Test Range (AFETR). Payloads include a variety of satellites, spacecraft, and rockets equipped with specific instruments for various scientific and technological missions. These include communications satellites like Starlink; space stations such as the ISS; scientific satellites like the Hubble; Earth observation satellites from companies like Planet Labs, Umbra, and HawkEye 360; GPS; miniature CubeSats for education and research; and military/defense satellites.

Loading next visibility...
STARLINK-1670 details
Identifier
46370, 2020-062AX
Orbit
LEO
Last TLE update5 hours ago
Origin
Flag of USSpaceX/Seattle (US)
ManufacturerSpaceX/Seattle
MissionPartially operational Commercial Communications
Bus & MotorSTARLINK, Unknown motor
Mass260 kg wet, ~248 kg dry
Launch date (UTC)
2020-09-03 (4 years ago)
Launch vehicle
FALCON 9
Launch site
Air Force Eastern Test Range (AFETR)
Object type
Payload
Rocket body
Debris
Shape & HBRBox + 1 Pan, 8.86 m
Radar Cross Section13.562 m², Large (>1 m²)

Expand to show TLE details & history

TLE from 5 hours ago
0 STARLINK-1670
1 46370U 20062AX  25013.91667824  .00390757  00000-0  17780-2 0  9990
2 46370  53.0486  50.9772 0007153  19.5461  22.2891 15.82228278241927
Epoch: 2025-01-13T22:00Z
Definitive object data (Epoch: 2025-01-13T22:00:00.999Z)
Latitude32.33704°
Longitude-4.39409°
Altitude321.784 km
Speed7.722 km/s
True Right ascension05h 16m 57s
True Declination32° 10' 18"
Sunlit
Object was in full shadow at TLE epoch
Visualization TLE readout
Latitude37.65756°
Longitude111.05406°
Altitude328.463 km
Speed7.715 km/s
Apparent Right ascension14h 11m 12s
Apparent Declination0° 01' 52"
Sunlit
Object is in full shadow
Visualization observer readout
Local Sidereal Time03:30:04
Azimuth29.166° NE
Elevation-46.193°
Doppler factor1
Orbital elements
Apogee altitude329.215 km
Perigee altitude319.627 km
Semi-major axis6,702.558 km
Eccentricity0.0007153
Inclination53.0486°
RAAN50.9772°
Arg. of periapsis19.5461°
True anomaly22.32021°
Mean anomaly22.2891°
Eccentric anomaly22.30465°
Mean motion3.95533 °/min
BSTAR0.001778
Orbital period91.02 mins
Loading maneuver chart data...
Loading historical data...
Loading historical data...
Loading historical data...
Loading historical data...
Loading historical data...
Loading historical data...
Loading historical data...

STARLINK-1670 Visibility forecast

Observer location: undefined°, undefined

Span
Click to sort rows by Start time (UTC) header in descending order
Start Az.
Max El. time (UTC)
Max El. Az.
Max El.
End time (UTC)
End Az.
4 mins2025-01-14 11:58:12.788Z310.302° NW2025-01-14 12:00:12.788Z128.19° SE42.7°2025-01-14 12:02:12.788Z130.313° SE
|